Regional Weather Roundup
Issued by NWS

Home | Current Version | Previous Version | Text Only | Print | Product List | Glossary On
Versions: 1 2 3 4 5 6 7 8 9 10 11 12 13 14 15 16 17 18 19 20 21 22 23 24 25 26 27 28 29 30 31 32 33 34 35 36 37 38 39 40 41 42 43 44 45 46 47 48 49 50
000
ASUS45 KABQ 291710
RWRNM
NEW MEXICO REGIONAL WEATHER ROUNDUP
NATIONAL WEATHER SERVICE ALBUQUERQUE NM
1100 AM MDT THU JUN 29 2017

NOTE: "FAIR" MEANS FEW OR NO CLOUDS BELOW 12,000 FEET AGL WITH NO
       SIGNIFICANT WEATHER OR OBSTRUCTIONS TO VISION.

      THIS PRODUCT IS RELEASED AS TWO VERSIONS.  ONE VERSION NEAR
      THE TOP OF THE HOUR CONTAINING PRELIMINARY DATA FROM ALBUQUERQUE
      AND OTHER STATIONS.  A FINAL VERSION WITH ADDITIONAL DATA IS
      ISSUED ABOUT 10 MINUTES AFTER THE HOUR.

NMZ501-503-504-510>518-291800-
NORTHWEST PLATEAU/NORTHCENTRAL MOUNTAINS

CITY           SKY/WX    TMP DP  RH WIND       PRES   REMARKS
FARMINGTON     FAIR      80  19  10 MISG      30.08S
LOS ALAMOS     FAIR      79  20  11 NE9       30.20S
SANTA FE       FAIR      85  22  10 W12G20    30.13S
TAOS           FAIR      77  21  12 S8        30.19
ANGEL FIRE     FAIR      68  27  21 W17G31    30.25S

$$
NMZ402-403-502-505>509-291800-
WESTCENTRAL MOUNTAINS/SOUTHWEST MOUNTAINS

CITY           SKY/WX    TMP DP  RH WIND       PRES   REMARKS
GALLUP         FAIR      82  26  13 W14G20    30.19S
GRANTS         FAIR      81  20  10 W10G22    30.20F
SILVER CITY    FAIR      84  39  19 NW14G21   30.14S

$$
NMZ407-409-411-412-291800-
SOUTHERN DESERTS

CITY           SKY/WX    TMP DP  RH WIND       PRES   REMARKS
DEMING         FAIR      91  39  16 W15G21    30.05S
LAS CRUCES     FAIR      90  36  14 CALM      30.06F
HOLLOMAN AFB   FAIR      95  26   8 NW6       30.03R
ALAMOGORDO     FAIR      91  27   9 W7        30.03R
T OR C         FAIR      90  34  13 NW12G17   30.06F

$$
NMZ519>523-291800-
CENTRAL VALLEYS/CENTRAL HIGHLANDS

CITY           SKY/WX    TMP DP  RH WIND       PRES   REMARKS
ALBUQUERQUE    FAIR      85  28  12 NE7       30.09F
DOUBLE EAGLE   SUNNY     84  32  15 NE8       30.12F
MORIARTY ARPT  FAIR      85  28  12 W14G22    30.15S
CLINES CORNERS FAIR      81  19  10 NW25G37   30.18S
BELEN          FAIR      89  23   9 W14G25    30.08F
SOCORRO        FAIR      90  28  10 N8        30.05F

$$
NMZ524>526-539-540-291800-
SOUTHCENTRAL MOUNTAINS

CITY           SKY/WX    TMP DP  RH WIND       PRES   REMARKS
RUIDOSO        FAIR      75  30  19 N13G21    30.23F

$$
NMZ527>531-291800-
NORTHEAST HIGHLANDS/NORTHEAST PLAINS

CITY           SKY/WX    TMP DP  RH WIND       PRES   REMARKS
LAS VEGAS      FAIR      82  14   8 S6        30.12S
RATON          FAIR      85  17   8 S17       30.03F
CLAYTON        FAIR      82  56  40 N14       29.97R

$$
NMZ532>537-291800-
EASTCENTRAL PLAINS

CITY           SKY/WX    TMP DP  RH WIND       PRES   REMARKS
SANTA ROSA     FAIR      93  24   8 NW18G25   29.97S
TUCUMCARI      FAIR      98  21   6 NW12      29.87S
CANNON AFB     SUNNY     94  29  10 W16       29.94R
CLOVIS AIRPORT FAIR      97  30   9 NW15      29.93R

$$
NMZ028-029-538-291800-
SOUTHEAST PLAINS

CITY           SKY/WX    TMP DP  RH WIND       PRES   REMARKS
ROSWELL        FAIR      96  40  14 VRB5      29.93F
ARTESIA        FAIR      93  43  17 VRB6      29.94S
CARLSBAD       FAIR      95  45  17 NE9       29.90F
HOBBS          SUNNY     95  34  11 NW16      29.95S


$$



USA.gov is the U.S. government's official web portal to all federal, state and local government web resources and services.